#datetime,building,power
2023-01-31T00:00:00,pth,3.60
2023-01-31T00:01:00,pth,1.19
2023-01-31T00:03:00,pth,4.80
2023-01-31T00:05:00,pth,4.80
2023-01-31T00:07:00,pth,3.60
2023-01-31T00:09:00,pth,4.80
2023-01-31T00:11:00,pth,4.80
2023-01-31T00:13:00,pth,4.80
2023-01-31T00:15:00,pth,4.80
2023-01-31T00:17:00,pth,2.40
2023-01-31T00:19:00,pth,1.20
2023-01-31T00:21:00,pth,2.40
2023-01-31T00:22:00,pth,1.20
2023-01-31T00:24:00,pth,1.20
2023-01-31T00:25:00,pth,2.40
2023-01-31T00:27:00,pth,3.60
2023-01-31T00:29:00,pth,4.80
2023-01-31T00:30:00,pth,1.20
2023-01-31T00:32:00,pth,4.80
2023-01-31T00:33:00,pth,2.40
2023-01-31T00:35:00,pth,3.60
2023-01-31T00:37:00,pth,3.60
2023-01-31T00:39:00,pth,4.80
2023-01-31T00:41:00,pth,2.40
2023-01-31T00:43:00,pth,2.40
2023-01-31T00:45:00,pth,2.40
2023-01-31T00:46:00,pth,1.20
2023-01-31T00:48:00,pth,2.40
2023-01-31T00:50:00,pth,1.20
2023-01-31T00:52:00,pth,3.60
2023-01-31T00:54:00,pth,4.80
2023-01-31T00:55:00,pth,2.40
2023-01-31T00:56:00,pth,1.20
2023-01-31T00:58:00,pth,4.80
2023-01-31T01:00:00,pth,4.80
2023-01-31T01:01:00,pth,1.20
2023-01-31T01:03:00,pth,4.80
2023-01-31T01:04:00,pth,1.20
2023-01-31T01:05:00,pth,2.40
2023-01-31T01:07:00,pth,3.60
2023-01-31T01:08:00,pth,1.19
2023-01-31T01:10:00,pth,1.20
2023-01-31T01:12:00,pth,2.40
2023-01-31T01:14:00,pth,2.40
2023-01-31T01:15:00,pth,1.19
2023-01-31T01:17:00,pth,2.40
2023-01-31T01:19:00,pth,3.60
2023-01-31T01:20:00,pth,1.19
2023-01-31T01:22:00,pth,4.80
2023-01-31T01:24:00,pth,3.60
2023-01-31T01:25:00,pth,2.40
2023-01-31T01:27:00,pth,3.60
2023-01-31T01:29:00,pth,3.60
2023-01-31T01:31:00,pth,4.80
2023-01-31T01:33:00,pth,3.60
2023-01-31T01:35:00,pth,3.60
2023-01-31T01:36:00,pth,1.20
2023-01-31T01:38:00,pth,1.20
2023-01-31T01:40:00,pth,2.40
2023-01-31T01:42:00,pth,1.20
2023-01-31T01:43:00,pth,1.19
2023-01-31T01:45:00,pth,3.60
2023-01-31T01:47:00,pth,3.60
2023-01-31T01:49:00,pth,3.60
2023-01-31T01:50:00,pth,1.20
2023-01-31T01:52:00,pth,4.80
2023-01-31T01:54:00,pth,3.60
2023-01-31T01:56:00,pth,3.60
2023-01-31T01:58:00,pth,3.60
2023-01-31T02:00:00,pth,3.60
2023-01-31T02:01:00,pth,2.40
2023-01-31T02:03:00,pth,2.40
2023-01-31T02:04:00,pth,1.20
2023-01-31T02:06:00,pth,1.19
2023-01-31T02:08:00,pth,1.20
2023-01-31T02:10:00,pth,2.40
2023-01-31T02:11:00,pth,1.20
2023-01-31T02:13:00,pth,3.60
2023-01-31T02:14:00,pth,1.20
2023-01-31T02:16:00,pth,3.60
2023-01-31T02:17:00,pth,2.40
2023-01-31T02:19:00,pth,3.60
2023-01-31T02:21:00,pth,3.60
2023-01-31T02:23:00,pth,4.80
2023-01-31T02:25:00,pth,3.60
2023-01-31T02:27:00,pth,3.60
2023-01-31T02:28:00,pth,2.40
2023-01-31T02:30:00,pth,2.40
2023-01-31T02:31:00,pth,1.20
2023-01-31T02:32:00,pth,1.20
2023-01-31T02:34:00,pth,2.40
2023-01-31T02:36:00,pth,2.40
2023-01-31T02:38:00,pth,1.20
2023-01-31T02:39:00,pth,2.40
2023-01-31T02:41:00,pth,3.60
2023-01-31T02:43:00,pth,4.80
2023-01-31T02:44:00,pth,2.40
2023-01-31T02:45:00,pth,1.20
2023-01-31T02:47:00,pth,3.60
2023-01-31T02:49:00,pth,4.80
2023-01-31T02:51:00,pth,3.60
2023-01-31T02:53:00,pth,3.60
2023-01-31T02:54:00,pth,2.40
2023-01-31T02:55:00,pth,1.19
2023-01-31T02:56:00,pth,2.40
2023-01-31T02:58:00,pth,2.40
2023-01-31T03:00:00,pth,2.40
2023-01-31T03:01:00,pth,1.19
2023-01-31T03:03:00,pth,2.40
2023-01-31T03:05:00,pth,1.20
2023-01-31T03:07:00,pth,2.40
2023-01-31T03:08:00,pth,2.40
2023-01-31T03:10:00,pth,3.60
2023-01-31T03:12:00,pth,3.60
2023-01-31T03:14:00,pth,3.60
2023-01-31T03:16:00,pth,3.60
2023-01-31T03:17:00,pth,2.40
2023-01-31T03:18:00,pth,1.20
2023-01-31T03:20:00,pth,3.60
2023-01-31T03:22:00,pth,3.60
2023-01-31T03:23:00,pth,2.40
2023-01-31T03:25:00,pth,3.60
2023-01-31T03:27:00,pth,2.40
2023-01-31T03:29:00,pth,2.40
2023-01-31T03:31:00,pth,2.40
2023-01-31T03:33:00,pth,1.20
2023-01-31T03:35:00,pth,2.40
2023-01-31T03:37:00,pth,3.60
2023-01-31T03:38:00,pth,2.40
2023-01-31T03:40:00,pth,4.80
2023-01-31T03:42:00,pth,3.60
2023-01-31T03:44:00,pth,3.60
2023-01-31T03:45:00,pth,2.40
2023-01-31T03:47:00,pth,3.60
2023-01-31T03:48:00,pth,2.40
2023-01-31T03:49:00,pth,2.40
2023-01-31T03:51:00,pth,4.80
2023-01-31T03:52:00,pth,1.20
2023-01-31T03:54:00,pth,2.40
2023-01-31T03:55:00,pth,1.20
2023-01-31T03:57:00,pth,1.19
2023-01-31T03:59:00,pth,2.40
2023-01-31T04:01:00,pth,2.40
2023-01-31T04:03:00,pth,3.60
2023-01-31T04:05:00,pth,3.60
2023-01-31T04:06:00,pth,2.40
2023-01-31T04:08:00,pth,3.60
2023-01-31T04:10:00,pth,3.60
2023-01-31T04:12:00,pth,4.80
2023-01-31T04:14:00,pth,3.60
2023-01-31T04:15:00,pth,2.40
2023-01-31T04:17:00,pth,3.60
2023-01-31T04:19:00,pth,3.60
2023-01-31T04:20:00,pth,2.40
2023-01-31T04:22:00,pth,1.20
2023-01-31T04:23:00,pth,1.19
2023-01-31T04:25:00,pth,2.40
2023-01-31T04:27:00,pth,2.40
2023-01-31T04:29:00,pth,1.20
2023-01-31T04:30:00,pth,2.40
2023-01-31T04:31:00,pth,2.40
2023-01-31T04:33:00,pth,3.60
2023-01-31T04:35:00,pth,3.60
2023-01-31T04:37:00,pth,4.80
2023-01-31T04:38:00,pth,1.20
2023-01-31T04:40:00,pth,4.80
2023-01-31T04:42:00,pth,3.60
2023-01-31T04:44:00,pth,3.60
2023-01-31T04:45:00,pth,2.40
2023-01-31T04:47:00,pth,3.60
2023-01-31T04:48:00,pth,1.20
2023-01-31T04:50:00,pth,2.40
2023-01-31T04:52:00,pth,1.20
2023-01-31T04:54:00,pth,2.40
2023-01-31T04:55:00,pth,1.20
2023-01-31T04:58:00,pth,2.40
2023-01-31T05:00:00,pth,3.60
2023-01-31T05:01:00,pth,2.40
2023-01-31T05:03:00,pth,3.60
2023-01-31T05:04:00,pth,2.40
2023-01-31T05:05:00,pth,1.20
2023-01-31T05:07:00,pth,4.80
2023-01-31T05:09:00,pth,3.60
2023-01-31T05:10:00,pth,1.19
2023-01-31T05:11:00,pth,2.40
2023-01-31T05:13:00,pth,4.80
2023-01-31T05:15:00,pth,3.60
2023-01-31T05:16:00,pth,2.40
2023-01-31T05:17:00,pth,1.19
2023-01-31T05:19:00,pth,1.20
2023-01-31T05:21:00,pth,2.40
2023-01-31T05:22:00,pth,1.20
2023-01-31T05:23:00,pth,1.20
2023-01-31T05:26:00,pth,2.40
2023-01-31T05:28:00,pth,3.60
2023-01-31T05:30:00,pth,3.60
2023-01-31T05:31:00,pth,1.20
2023-01-31T05:33:00,pth,4.80
2023-01-31T05:35:00,pth,3.60
2023-01-31T05:37:00,pth,3.60
2023-01-31T05:39:00,pth,3.60
2023-01-31T05:41:00,pth,1.20
2023-01-31T05:43:00,pth,2.40
2023-01-31T05:45:00,pth,1.19
2023-01-31T05:47:00,pth,2.40
2023-01-31T05:49:00,pth,1.20
2023-01-31T05:51:00,pth,2.40
2023-01-31T05:52:00,pth,2.40
2023-01-31T05:54:00,pth,3.60
2023-01-31T05:56:00,pth,3.60
2023-01-31T05:58:00,pth,3.60
2023-01-31T06:00:00,pth,4.80
2023-01-31T06:01:00,pth,1.20
2023-01-31T06:03:00,pth,3.60
2023-01-31T06:05:00,pth,3.60
2023-01-31T06:06:00,pth,2.40
2023-01-31T06:08:00,pth,1.20
2023-01-31T06:09:00,pth,1.20
2023-01-31T06:11:00,pth,2.40
2023-01-31T06:13:00,pth,1.20
2023-01-31T06:15:00,pth,2.40
2023-01-31T06:17:00,pth,2.40
2023-01-31T06:18:00,pth,1.20
2023-01-31T06:20:00,pth,4.80
2023-01-31T06:22:00,pth,3.60
2023-01-31T06:24:00,pth,3.60
2023-01-31T06:25:00,pth,2.40
2023-01-31T06:27:00,pth,3.60
2023-01-31T06:28:00,pth,2.40
2023-01-31T06:30:00,pth,3.60
2023-01-31T06:31:00,pth,2.40
2023-01-31T06:33:00,pth,3.60
2023-01-31T06:34:00,pth,2.40
2023-01-31T06:36:00,pth,2.40
2023-01-31T06:38:00,pth,2.40
2023-01-31T06:39:00,pth,1.20
2023-01-31T06:41:00,pth,1.20
2023-01-31T06:42:00,pth,1.20
2023-01-31T06:44:00,pth,2.40
2023-01-31T06:46:00,pth,3.60
2023-01-31T06:48:00,pth,3.60
2023-01-31T06:50:00,pth,4.80
2023-01-31T06:51:00,pth,1.20
2023-01-31T06:53:00,pth,4.80
2023-01-31T06:55:00,pth,3.60
2023-01-31T06:57:00,pth,3.60
2023-01-31T06:59:00,pth,3.60
2023-01-31T07:01:00,pth,4.80
2023-01-31T07:03:00,pth,2.40
2023-01-31T07:04:00,pth,1.20
2023-01-31T07:06:00,pth,2.40
2023-01-31T07:08:00,pth,1.20
2023-01-31T07:09:00,pth,1.20
2023-01-31T07:11:00,pth,2.40
2023-01-31T07:13:00,pth,3.60
2023-01-31T07:14:00,pth,2.40
2023-01-31T07:16:00,pth,4.80
2023-01-31T07:17:00,pth,1.20
2023-01-31T07:19:00,pth,4.80
2023-01-31T07:20:00,pth,1.20
2023-01-31T07:22:00,pth,3.60
2023-01-31T07:23:00,pth,2.40
2023-01-31T07:25:00,pth,2.40
2023-01-31T07:27:00,pth,4.80
2023-01-31T07:28:00,pth,1.20
2023-01-31T07:30:00,pth,3.60
2023-01-31T07:32:00,pth,1.20
2023-01-31T07:34:00,pth,1.19
2023-01-31T07:37:00,pth,1.20
2023-01-31T07:39:00,pth,1.20
2023-01-31T07:40:00,pth,1.20
2023-01-31T07:42:00,pth,3.60
2023-01-31T07:44:00,pth,3.60
2023-01-31T07:45:00,pth,1.20
2023-01-31T07:47:00,pth,3.60
2023-01-31T07:49:00,pth,3.60
2023-01-31T07:51:00,pth,3.60
2023-01-31T07:53:00,pth,3.60
2023-01-31T07:54:00,pth,1.20
2023-01-31T07:55:00,pth,1.20
2023-01-31T07:57:00,pth,3.60
2023-01-31T07:59:00,pth,1.20
2023-01-31T08:01:00,pth,1.20
2023-01-31T08:02:00,pth,1.20
2023-01-31T08:04:00,pth,1.19
2023-01-31T08:07:00,pth,2.40
2023-01-31T08:09:00,pth,3.60
2023-01-31T08:11:00,pth,3.60
2023-01-31T08:13:00,pth,3.60
2023-01-31T08:15:00,pth,3.60
2023-01-31T08:17:00,pth,3.60
2023-01-31T08:18:00,pth,1.20
2023-01-31T08:20:00,pth,3.60
2023-01-31T08:22:00,pth,3.60
2023-01-31T08:23:00,pth,1.19
2023-01-31T08:25:00,pth,3.60
2023-01-31T08:28:00,pth,1.20
2023-01-31T08:30:00,pth,2.40
2023-01-31T08:33:00,pth,2.40
2023-01-31T08:35:00,pth,2.40
2023-01-31T08:37:00,pth,2.40
2023-01-31T08:38:00,pth,2.40
2023-01-31T08:40:00,pth,3.60
2023-01-31T08:42:00,pth,3.60
2023-01-31T08:43:00,pth,1.20
2023-01-31T08:45:00,pth,3.60
2023-01-31T08:47:00,pth,2.40
2023-01-31T08:49:00,pth,3.60
2023-01-31T08:50:00,pth,2.40
2023-01-31T08:52:00,pth,3.60
2023-01-31T08:53:00,pth,2.40
2023-01-31T08:55:00,pth,1.20
2023-01-31T08:57:00,pth,2.40
2023-01-31T08:59:00,pth,2.40
2023-01-31T09:01:00,pth,1.20
2023-01-31T09:03:00,pth,2.40
2023-01-31T09:05:00,pth,3.60
2023-01-31T09:07:00,pth,3.60
2023-01-31T09:09:00,pth,3.60
2023-01-31T09:10:00,pth,1.20
2023-01-31T09:12:00,pth,3.60
2023-01-31T09:14:00,pth,3.60
2023-01-31T09:15:00,pth,2.40
2023-01-31T09:16:00,pth,1.19
2023-01-31T09:18:00,pth,3.60
2023-01-31T09:20:00,pth,4.80
2023-01-31T09:22:00,pth,3.60
2023-01-31T09:24:00,pth,3.60
2023-01-31T09:26:00,pth,2.40
2023-01-31T09:27:00,pth,1.20
2023-01-31T09:28:00,pth,1.20
2023-01-31T09:30:00,pth,2.40
2023-01-31T09:32:00,pth,2.40
2023-01-31T09:33:00,pth,1.20
2023-01-31T09:34:00,pth,1.20
2023-01-31T09:36:00,pth,4.80
2023-01-31T09:37:00,pth,1.20
2023-01-31T09:39:00,pth,3.60
2023-01-31T09:41:00,pth,4.80
2023-01-31T09:42:00,pth,1.20
2023-01-31T09:43:00,pth,2.40
2023-01-31T09:45:00,pth,3.60
2023-01-31T09:47:00,pth,3.60
2023-01-31T09:48:00,pth,2.40
2023-01-31T09:50:00,pth,3.60
2023-01-31T09:52:00,pth,3.60
2023-01-31T09:54:00,pth,3.60
2023-01-31T09:56:00,pth,4.80
2023-01-31T09:58:00,pth,2.40
2023-01-31T10:00:00,pth,1.19
2023-01-31T10:02:00,pth,2.40
2023-01-31T10:04:00,pth,1.20
2023-01-31T10:06:00,pth,1.20
2023-01-31T10:07:00,pth,2.40
2023-01-31T10:09:00,pth,3.60
2023-01-31T10:11:00,pth,4.80
2023-01-31T10:12:00,pth,1.20
2023-01-31T10:14:00,pth,3.60
2023-01-31T10:15:00,pth,2.40
2023-01-31T10:17:00,pth,3.60
2023-01-31T10:19:00,pth,6.00
2023-01-31T10:20:00,pth,3.60
2023-01-31T10:22:00,pth,4.80
2023-01-31T10:24:00,pth,4.80
2023-01-31T10:26:00,pth,4.80
2023-01-31T10:27:00,pth,2.40
2023-01-31T10:29:00,pth,1.20
2023-01-31T10:31:00,pth,2.40
2023-01-31T10:33:00,pth,1.20
2023-01-31T10:35:00,pth,1.20
2023-01-31T10:37:00,pth,3.60
2023-01-31T10:39:00,pth,4.80
2023-01-31T10:41:00,pth,3.60
2023-01-31T10:43:00,pth,4.80
2023-01-31T10:44:00,pth,1.20
2023-01-31T10:46:00,pth,3.60
2023-01-31T10:48:00,pth,4.80
2023-01-31T10:50:00,pth,3.60
2023-01-31T10:52:00,pth,3.60
2023-01-31T10:54:00,pth,3.60
2023-01-31T10:56:00,pth,3.60
2023-01-31T10:57:00,pth,2.40
2023-01-31T10:59:00,pth,1.20
2023-01-31T11:01:00,pth,2.40
2023-01-31T11:04:00,pth,1.20
2023-01-31T11:06:00,pth,2.40
2023-01-31T11:08:00,pth,3.60
2023-01-31T11:10:00,pth,2.40
2023-01-31T11:11:00,pth,2.40
2023-01-31T11:13:00,pth,3.60
2023-01-31T11:15:00,pth,3.60
2023-01-31T11:17:00,pth,3.60
2023-01-31T11:18:00,pth,2.40
2023-01-31T11:19:00,pth,1.20
2023-01-31T11:21:00,pth,3.60
2023-01-31T11:23:00,pth,3.60
2023-01-31T11:25:00,pth,3.60
2023-01-31T11:26:00,pth,2.40
2023-01-31T11:27:00,pth,1.20
2023-01-31T11:28:00,pth,2.40
2023-01-31T11:30:00,pth,3.60
2023-01-31T11:32:00,pth,1.20
2023-01-31T11:33:00,pth,1.20
2023-01-31T11:35:00,pth,1.20
2023-01-31T11:36:00,pth,1.20
2023-01-31T11:38:00,pth,1.19
2023-01-31T11:39:00,pth,1.20
2023-01-31T11:41:00,pth,3.60
2023-01-31T11:43:00,pth,4.80
2023-01-31T11:45:00,pth,3.60
2023-01-31T11:46:00,pth,2.40
2023-01-31T11:48:00,pth,3.60
2023-01-31T11:50:00,pth,3.60
2023-01-31T11:51:00,pth,1.20
2023-01-31T11:53:00,pth,3.60
2023-01-31T11:55:00,pth,3.60
2023-01-31T11:56:00,pth,2.40
2023-01-31T11:58:00,pth,3.60
2023-01-31T11:59:00,pth,1.20
2023-01-31T12:01:00,pth,4.80
2023-01-31T12:03:00,pth,3.60
2023-01-31T12:04:00,pth,1.20
2023-01-31T12:06:00,pth,3.60
2023-01-31T12:08:00,pth,3.60
2023-01-31T12:10:00,pth,2.40
2023-01-31T12:12:00,pth,1.20
2023-01-31T12:13:00,pth,1.19
2023-01-31T12:14:00,pth,1.20
2023-01-31T12:16:00,pth,1.20
2023-01-31T12:17:00,pth,1.20
2023-01-31T12:19:00,pth,3.60
2023-01-31T12:21:00,pth,3.60
2023-01-31T12:22:00,pth,2.40
2023-01-31T12:24:00,pth,3.60
2023-01-31T12:26:00,pth,2.40
2023-01-31T12:28:00,pth,3.60
2023-01-31T12:29:00,pth,2.40
2023-01-31T12:30:00,pth,1.20
2023-01-31T12:32:00,pth,3.60
2023-01-31T12:34:00,pth,3.60
2023-01-31T12:36:00,pth,3.60
2023-01-31T12:37:00,pth,1.20
2023-01-31T12:39:00,pth,3.60
2023-01-31T12:40:00,pth,1.20
2023-01-31T12:42:00,pth,3.60
2023-01-31T12:44:00,pth,4.80
2023-01-31T12:46:00,pth,4.80
2023-01-31T12:47:00,pth,2.40
2023-01-31T12:49:00,pth,4.80
2023-01-31T12:51:00,pth,2.40
2023-01-31T12:52:00,pth,1.19
2023-01-31T12:53:00,pth,1.20
2023-01-31T12:55:00,pth,2.40
2023-01-31T12:57:00,pth,1.20
2023-01-31T12:59:00,pth,3.60
2023-01-31T13:01:00,pth,3.60
2023-01-31T13:02:00,pth,1.20
2023-01-31T13:04:00,pth,4.80
2023-01-31T13:05:00,pth,1.20
2023-01-31T13:07:00,pth,3.60
2023-01-31T13:08:00,pth,2.40
2023-01-31T13:09:00,pth,1.20
2023-01-31T13:11:00,pth,3.60
2023-01-31T13:13:00,pth,3.60
2023-01-31T13:15:00,pth,4.80
2023-01-31T13:16:00,pth,1.20
2023-01-31T13:18:00,pth,3.60
2023-01-31T13:20:00,pth,4.80
2023-01-31T13:21:00,pth,1.20
2023-01-31T13:23:00,pth,3.60
2023-01-31T13:24:00,pth,2.40
2023-01-31T13:25:00,pth,2.40
2023-01-31T13:27:00,pth,2.40
2023-01-31T13:28:00,pth,2.40
2023-01-31T13:30:00,pth,2.40
2023-01-31T13:32:00,pth,1.20
2023-01-31T13:33:00,pth,1.19
2023-01-31T13:35:00,pth,1.20
2023-01-31T13:37:00,pth,1.20
2023-01-31T13:39:00,pth,3.60
2023-01-31T13:41:00,pth,3.60
2023-01-31T13:43:00,pth,3.60
2023-01-31T13:45:00,pth,3.60
2023-01-31T13:47:00,pth,3.60
2023-01-31T13:48:00,pth,2.40
2023-01-31T13:50:00,pth,2.40
2023-01-31T13:52:00,pth,3.60
2023-01-31T13:54:00,pth,3.60
2023-01-31T13:56:00,pth,3.60
2023-01-31T13:58:00,pth,4.80
2023-01-31T14:00:00,pth,3.60
2023-01-31T14:02:00,pth,7.20
2023-01-31T14:04:00,pth,8.39
2023-01-31T14:06:00,pth,7.20
2023-01-31T14:08:00,pth,1.20
2023-01-31T14:09:00,pth,1.20
2023-01-31T14:10:00,pth,1.20
2023-01-31T14:12:00,pth,1.20
2023-01-31T14:14:00,pth,2.40
2023-01-31T14:15:00,pth,1.19
2023-01-31T14:17:00,pth,3.60
2023-01-31T14:19:00,pth,3.60
2023-01-31T14:21:00,pth,3.60
2023-01-31T14:23:00,pth,3.60
2023-01-31T14:24:00,pth,2.40
2023-01-31T14:26:00,pth,2.40
2023-01-31T14:27:00,pth,2.40
2023-01-31T14:29:00,pth,3.60
2023-01-31T14:31:00,pth,2.40
2023-01-31T14:33:00,pth,3.60
2023-01-31T14:34:00,pth,1.20
2023-01-31T14:36:00,pth,3.60
2023-01-31T14:38:00,pth,2.40
2023-01-31T14:39:00,pth,2.40
2023-01-31T14:41:00,pth,1.20
2023-01-31T14:42:00,pth,1.20
2023-01-31T14:45:00,pth,1.19
2023-01-31T14:46:00,pth,1.20
2023-01-31T14:48:00,pth,2.40
2023-01-31T14:49:00,pth,1.20
2023-01-31T14:50:00,pth,2.40
2023-01-31T14:52:00,pth,3.60
2023-01-31T14:53:00,pth,1.20
2023-01-31T14:55:00,pth,3.60
2023-01-31T14:57:00,pth,3.60
2023-01-31T14:59:00,pth,3.60
2023-01-31T15:00:00,pth,2.40
2023-01-31T15:01:00,pth,1.20
2023-01-31T15:03:00,pth,3.60
2023-01-31T15:05:00,pth,4.80
2023-01-31T15:06:00,pth,3.60
2023-01-31T15:08:00,pth,9.60
2023-01-31T15:10:00,pth,8.40
2023-01-31T15:12:00,pth,8.40
2023-01-31T15:14:00,pth,8.40
2023-01-31T15:16:00,pth,7.20
2023-01-31T15:18:00,pth,7.20
2023-01-31T15:20:00,pth,7.20
2023-01-31T15:22:00,pth,1.20
2023-01-31T15:23:00,pth,1.19
2023-01-31T15:24:00,pth,2.40
2023-01-31T15:26:00,pth,8.40
2023-01-31T15:28:00,pth,7.20
2023-01-31T15:29:00,pth,2.40
2023-01-31T15:30:00,pth,1.20
2023-01-31T15:32:00,pth,3.60
2023-01-31T15:34:00,pth,3.60
2023-01-31T15:35:00,pth,1.19
2023-01-31T15:36:00,pth,2.40
2023-01-31T15:38:00,pth,2.40
2023-01-31T15:40:00,pth,3.60
2023-01-31T15:42:00,pth,3.60
2023-01-31T15:44:00,pth,3.60
2023-01-31T15:46:00,pth,3.60
2023-01-31T15:48:00,pth,3.60
2023-01-31T15:49:00,pth,1.20
2023-01-31T15:51:00,pth,4.80
2023-01-31T15:53:00,pth,2.40
2023-01-31T15:55:00,pth,2.40
2023-01-31T15:57:00,pth,1.20
2023-01-31T15:59:00,pth,2.40
2023-01-31T16:01:00,pth,1.19
2023-01-31T16:03:00,pth,3.60
2023-01-31T16:05:00,pth,4.80
2023-01-31T16:07:00,pth,2.40
2023-01-31T16:09:00,pth,3.60
2023-01-31T16:11:00,pth,3.60
2023-01-31T16:13:00,pth,3.60
2023-01-31T16:14:00,pth,2.40
2023-01-31T16:16:00,pth,3.60
2023-01-31T16:17:00,pth,2.40
2023-01-31T16:19:00,pth,2.40
2023-01-31T16:21:00,pth,3.60
2023-01-31T16:23:00,pth,3.60
2023-01-31T16:24:00,pth,2.40
2023-01-31T16:26:00,pth,3.60
2023-01-31T16:27:00,pth,1.20
2023-01-31T16:29:00,pth,3.60
2023-01-31T16:31:00,pth,3.60
2023-01-31T16:33:00,pth,3.60
2023-01-31T16:35:00,pth,2.40
2023-01-31T16:37:00,pth,1.20
2023-01-31T16:38:00,pth,1.20
2023-01-31T16:40:00,pth,1.20
2023-01-31T16:42:00,pth,1.20
2023-01-31T16:43:00,pth,1.20
2023-01-31T16:45:00,pth,3.60
2023-01-31T16:47:00,pth,2.40
2023-01-31T16:48:00,pth,2.40
2023-01-31T16:50:00,pth,3.60
2023-01-31T16:52:00,pth,2.40
2023-01-31T16:53:00,pth,1.19
2023-01-31T16:55:00,pth,3.60
2023-01-31T16:57:00,pth,3.60
2023-01-31T16:59:00,pth,3.60
2023-01-31T17:01:00,pth,3.60
2023-01-31T17:02:00,pth,1.19
2023-01-31T17:04:00,pth,3.60
2023-01-31T17:05:00,pth,2.40
2023-01-31T17:07:00,pth,3.60
2023-01-31T17:08:00,pth,1.20
2023-01-31T17:10:00,pth,3.60
2023-01-31T17:12:00,pth,4.80
2023-01-31T17:13:00,pth,1.20
2023-01-31T17:15:00,pth,3.60
2023-01-31T17:17:00,pth,4.80
2023-01-31T17:18:00,pth,1.19
2023-01-31T17:20:00,pth,3.60
2023-01-31T17:22:00,pth,4.80
2023-01-31T17:24:00,pth,3.60
2023-01-31T17:26:00,pth,3.60
2023-01-31T17:27:00,pth,2.40
2023-01-31T17:29:00,pth,3.60
2023-01-31T17:30:00,pth,2.40
2023-01-31T17:32:00,pth,4.80
2023-01-31T17:34:00,pth,3.60
2023-01-31T17:36:00,pth,3.60
2023-01-31T17:38:00,pth,4.80
2023-01-31T17:40:00,pth,4.80
2023-01-31T17:42:00,pth,3.60
2023-01-31T17:43:00,pth,2.40
2023-01-31T17:45:00,pth,3.60
2023-01-31T17:46:00,pth,2.40
2023-01-31T17:48:00,pth,3.60
2023-01-31T17:49:00,pth,2.40
2023-01-31T17:51:00,pth,3.60
2023-01-31T17:53:00,pth,4.80
2023-01-31T17:55:00,pth,3.60
2023-01-31T17:57:00,pth,4.80
2023-01-31T17:58:00,pth,2.40
2023-01-31T18:00:00,pth,3.60
2023-01-31T18:01:00,pth,2.40
2023-01-31T18:03:00,pth,3.60
2023-01-31T18:04:00,pth,2.40
2023-01-31T18:06:00,pth,3.60
2023-01-31T18:07:00,pth,2.40
2023-01-31T18:09:00,pth,3.60
2023-01-31T18:11:00,pth,4.80
2023-01-31T18:12:00,pth,1.20
2023-01-31T18:14:00,pth,4.80
2023-01-31T18:15:00,pth,1.20
2023-01-31T18:17:00,pth,4.80
2023-01-31T18:19:00,pth,3.60
2023-01-31T18:20:00,pth,2.40
2023-01-31T18:22:00,pth,3.60
2023-01-31T18:24:00,pth,3.60
2023-01-31T18:25:00,pth,2.40
2023-01-31T18:27:00,pth,4.80
2023-01-31T18:28:00,pth,2.40
2023-01-31T18:30:00,pth,3.60
2023-01-31T18:31:00,pth,2.40
2023-01-31T18:32:00,pth,2.40
2023-01-31T18:34:00,pth,4.80
2023-01-31T18:36:00,pth,3.60
2023-01-31T18:38:00,pth,4.80
2023-01-31T18:39:00,pth,1.20
2023-01-31T18:40:00,pth,2.40
2023-01-31T18:41:00,pth,2.40
2023-01-31T18:43:00,pth,3.60
2023-01-31T18:45:00,pth,3.60
2023-01-31T18:47:00,pth,3.60
2023-01-31T18:49:00,pth,3.60
2023-01-31T18:50:00,pth,2.40
2023-01-31T18:52:00,pth,3.60
2023-01-31T18:53:00,pth,2.40
2023-01-31T18:55:00,pth,3.60
2023-01-31T18:56:00,pth,1.20
2023-01-31T18:58:00,pth,4.80
2023-01-31T19:00:00,pth,3.60
2023-01-31T19:02:00,pth,3.60
2023-01-31T19:03:00,pth,1.20
2023-01-31T19:05:00,pth,3.60
2023-01-31T19:07:00,pth,4.80
2023-01-31T19:09:00,pth,3.60
2023-01-31T19:11:00,pth,4.80
2023-01-31T19:13:00,pth,4.80
2023-01-31T19:15:00,pth,3.60
2023-01-31T19:16:00,pth,2.40
2023-01-31T19:18:00,pth,4.80
2023-01-31T19:20:00,pth,4.80
2023-01-31T19:21:00,pth,2.40
2023-01-31T19:23:00,pth,4.80
2023-01-31T19:24:00,pth,2.40
2023-01-31T19:26:00,pth,4.80
2023-01-31T19:27:00,pth,2.40
2023-01-31T19:28:00,pth,2.40
2023-01-31T19:30:00,pth,4.80
2023-01-31T19:31:00,pth,2.40
2023-01-31T19:32:00,pth,2.40
2023-01-31T19:34:00,pth,4.80
2023-01-31T19:35:00,pth,2.40
2023-01-31T19:37:00,pth,3.60
2023-01-31T19:38:00,pth,2.40
2023-01-31T19:39:00,pth,2.40
2023-01-31T19:40:00,pth,2.40
2023-01-31T19:41:00,pth,2.40
2023-01-31T19:43:00,pth,4.80
2023-01-31T19:44:00,pth,1.20
2023-01-31T19:46:00,pth,4.80
2023-01-31T19:47:00,pth,1.20
2023-01-31T19:49:00,pth,4.80
2023-01-31T19:51:00,pth,3.60
2023-01-31T19:52:00,pth,2.40
2023-01-31T19:54:00,pth,3.60
2023-01-31T19:56:00,pth,3.60
2023-01-31T19:58:00,pth,3.60
2023-01-31T20:00:00,pth,4.80
2023-01-31T20:02:00,pth,3.60
2023-01-31T20:04:00,pth,3.60
2023-01-31T20:06:00,pth,3.60
2023-01-31T20:07:00,pth,2.40
2023-01-31T20:09:00,pth,3.60
2023-01-31T20:10:00,pth,2.40
2023-01-31T20:12:00,pth,3.60
2023-01-31T20:13:00,pth,2.40
2023-01-31T20:14:00,pth,1.20
2023-01-31T20:16:00,pth,4.80
2023-01-31T20:17:00,pth,1.20
2023-01-31T20:19:00,pth,4.80
2023-01-31T20:21:00,pth,7.21
2023-01-31T20:23:00,pth,9.59
2023-01-31T20:25:00,pth,8.40
2023-01-31T20:27:00,pth,8.40
2023-01-31T20:28:00,pth,4.80
2023-01-31T20:30:00,pth,7.20
2023-01-31T20:32:00,pth,7.20
2023-01-31T20:34:00,pth,8.40
2023-01-31T20:35:00,pth,2.40
2023-01-31T20:36:00,pth,2.40
2023-01-31T20:38:00,pth,4.80
2023-01-31T20:40:00,pth,4.80
2023-01-31T20:42:00,pth,4.80
2023-01-31T20:44:00,pth,4.80
2023-01-31T20:45:00,pth,2.40
2023-01-31T20:47:00,pth,4.80
2023-01-31T20:49:00,pth,4.80
2023-01-31T20:51:00,pth,3.60
2023-01-31T20:52:00,pth,2.40
2023-01-31T20:54:00,pth,4.80
2023-01-31T20:56:00,pth,3.60
2023-01-31T20:57:00,pth,2.40
2023-01-31T20:59:00,pth,4.80
2023-01-31T21:01:00,pth,4.80
2023-01-31T21:03:00,pth,4.80
2023-01-31T21:04:00,pth,3.60
2023-01-31T21:06:00,pth,3.60
2023-01-31T21:07:00,pth,2.40
2023-01-31T21:09:00,pth,4.80
2023-01-31T21:11:00,pth,3.60
2023-01-31T21:13:00,pth,4.80
2023-01-31T21:15:00,pth,4.80
2023-01-31T21:16:00,pth,2.40
2023-01-31T21:18:00,pth,4.80
2023-01-31T21:20:00,pth,4.80
2023-01-31T21:21:00,pth,2.40
2023-01-31T21:23:00,pth,4.80
2023-01-31T21:25:00,pth,4.80
2023-01-31T21:26:00,pth,3.60
2023-01-31T21:28:00,pth,4.80
2023-01-31T21:30:00,pth,4.80
2023-01-31T21:32:00,pth,4.80
2023-01-31T21:33:00,pth,2.40
2023-01-31T21:35:00,pth,4.80
2023-01-31T21:36:00,pth,2.40
2023-01-31T21:37:00,pth,2.40
2023-01-31T21:38:00,pth,2.40
2023-01-31T21:40:00,pth,4.80
2023-01-31T21:41:00,pth,2.40
2023-01-31T21:43:00,pth,4.80
2023-01-31T21:44:00,pth,2.40
2023-01-31T21:46:00,pth,4.80
2023-01-31T21:48:00,pth,4.80
2023-01-31T21:50:00,pth,4.80
2023-01-31T21:51:00,pth,2.40
2023-01-31T21:53:00,pth,10.80
2023-01-31T21:55:00,pth,15.59
2023-01-31T21:57:00,pth,16.80
2023-01-31T21:59:00,pth,18.00
2023-01-31T22:00:00,pth,8.40
2023-01-31T22:02:00,pth,15.60
2023-01-31T22:04:00,pth,15.60
2023-01-31T22:06:00,pth,15.59
2023-01-31T22:07:00,pth,8.40
2023-01-31T22:08:00,pth,7.20
2023-01-31T22:09:00,pth,8.40
2023-01-31T22:11:00,pth,15.60
2023-01-31T22:13:00,pth,16.80
2023-01-31T22:14:00,pth,7.20
2023-01-31T22:16:00,pth,15.60
2023-01-31T22:17:00,pth,8.40
2023-01-31T22:19:00,pth,15.60
2023-01-31T22:20:00,pth,7.20
2023-01-31T22:21:00,pth,7.20
2023-01-31T22:23:00,pth,15.60
2023-01-31T22:25:00,pth,12.00
2023-01-31T22:27:00,pth,15.60
2023-01-31T22:29:00,pth,12.00
2023-01-31T22:31:00,pth,15.60
2023-01-31T22:33:00,pth,10.80
2023-01-31T22:34:00,pth,8.40
2023-01-31T22:36:00,pth,10.80
2023-01-31T22:38:00,pth,12.00
2023-01-31T22:39:00,pth,7.20
2023-01-31T22:41:00,pth,12.00
2023-01-31T22:42:00,pth,7.20
2023-01-31T22:44:00,pth,10.80
2023-01-31T22:45:00,pth,8.40
2023-01-31T22:47:00,pth,10.80
2023-01-31T22:48:00,pth,8.40
2023-01-31T22:50:00,pth,7.20
2023-01-31T22:52:00,pth,4.80
